2016-10-10 00:02:07 r, 19.51m,0000000002Hz,0000349178c,0000000.758s, 023.2C,00002191
2016-10-10 00:12:07 r, 19.40m,0000000002Hz,0000314042c,0000000.682s, 022.8C,00002191
2016-10-10 00:22:06 r, 19.39m,0000000002Hz,0000312928c,0000000.679s, 022.8C,00002191
2016-10-10 00:32:08 r, 19.29m,0000000002Hz,0000285184c,0000000.619s, 022.8C,00002191
2016-10-10 00:42:07 r, 19.48m,0000000001Hz,0000339616c,0000000.737s, 022.8C,00002191
2016-10-10 00:52:06 r, 19.47m,0000000001Hz,0000335073c,0000000.727s, 022.8C,00002191
2016-10-10 01:02:08 r, 19.51m,0000000002Hz,0000346629c,0000000.752s, 022.8C,00002191
2016-10-10 01:12:06 r, 19.36m,0000000001Hz,0000303303c,0000000.658s, 022.8C,00002191
2016-10-10 01:22:06 r, 19.39m,0000000002Hz,0000311964c,0000000.677s, 022.8C,00002191
2016-10-10 01:32:06 r, 19.41m,0000000001Hz,0000317871c,0000000.690s, 022.8C,00002191
2016-10-10 01:42:07 r, 19.71m,0000000001Hz,0000416684c,0000000.904s, 022.8C,00002191
2016-10-10 01:52:07 r, 19.59m,0000000001Hz,0000374313c,0000000.812s, 022.8C,00002191
2016-10-10 02:02:07 r, 19.19m,0000000001Hz,0000258137c,0000000.560s, 022.8C,00002191
2016-10-10 02:12:06 r, 19.33m,0000000002Hz,0000295654c,0000000.642s, 022.8C,00002191
2016-10-10 02:22:07 r, 19.49m,0000000001Hz,0000343589c,0000000.746s, 022.8C,00002191
2016-10-10 02:32:07 r, 19.65m,0000000001Hz,0000396518c,0000000.860s, 022.8C,00002191
2016-10-10 02:42:07 r, 19.64m,0000000001Hz,0000390689c,0000000.848s, 022.5C,00002191
2016-10-10 02:52:07 r, 19.24m,0000000001Hz,0000270435c,0000000.587s, 022.5C,00002191
2016-10-10 03:02:08 r, 19.25m,0000000002Hz,0000274567c,0000000.596s, 022.5C,00002191
2016-10-10 03:12:07 r, 19.11m,0000000002Hz,0000239996c,0000000.521s, 022.5C,00002191
2016-10-10 03:22:06 r, 19.06m,0000000002Hz,0000229321c,0000000.498s, 022.5C,00002191
2016-10-10 03:32:06 r, 19.21m,0000000002Hz,0000265011c,0000000.575s, 022.2C,00002191
2016-10-10 03:42:07 r, 19.42m,0000000001Hz,0000321485c,0000000.698s, 022.2C,00002191
2016-10-10 03:52:07 r, 19.21m,0000000002Hz,0000265742c,0000000.577s, 022.2C,00002191
2016-10-10 04:02:06 r, 19.21m,0000000002Hz,0000264033c,0000000.573s, 022.2C,00002191
2016-10-10 04:12:06 r, 19.38m,0000000002Hz,0000308236c,0000000.669s, 021.9C,00002191
2016-10-10 04:22:06 r, 19.42m,0000000001Hz,0000321443c,0000000.698s, 021.9C,00002191
2016-10-10 04:32:07 r, 19.18m,0000000002Hz,0000255359c,0000000.554s, 021.9C,00002191
2016-10-10 04:42:06 r, 19.14m,0000000002Hz,0000246636c,0000000.535s, 021.9C,00002191
2016-10-10 04:52:07 r, 19.47m,0000000001Hz,0000335140c,0000000.727s, 021.9C,00002191
2016-10-10 05:02:07 r, 19.49m,0000000001Hz,0000343661c,0000000.746s, 021.9C,00002191
2016-10-10 05:12:07 r, 19.55m,0000000001Hz,0000360137c,0000000.782s, 021.5C,00002191
2016-10-10 05:22:07 r, 19.49m,0000000002Hz,0000343798c,0000000.746s, 021.5C,00002191
2016-10-10 05:32:06 r, 19.61m,0000000002Hz,0000379062c,0000000.823s, 021.2C,00002191
2016-10-10 05:42:06 r, 19.35m,0000000002Hz,0000301500c,0000000.654s, 020.9C,00002191
2016-10-10 05:52:07 r, 19.23m,0000000001Hz,0000268812c,0000000.583s, 020.6C,00002191
2016-10-10 06:02:07 r, 18.96m,0000000002Hz,0000210311c,0000000.456s, 020.6C,00002191
2016-10-10 06:12:07 r, 19.14m,0000000002Hz,0000249742c,0000000.542s, 020.6C,00002191
2016-10-10 06:22:07 r, 19.15m,0000000001Hz,0000251421c,0000000.546s, 020.3C,00002191
2016-10-10 06:32:07 r, 18.87m,0000000003Hz,0000192801c,0000000.418s, 020.3C,00002191
2016-10-10 06:42:06 r, 18.38m,0000000004Hz,0000123813c,0000000.269s, 019.9C,00002191
2016-10-10 06:52:07 r, 17.20m,0000000011Hz,0000041929c,0000000.091s, 019.9C,00002191
2016-10-10 07:02:07 r, 15.62m,0000000047Hz,0000009752c,0000000.021s, 019.9C,00002191
2016-10-10 07:12:07 r, 13.94m,0000000224Hz,0000000000c,0000000.000s, 019.6C,00002191
2016-10-10 07:22:07 r, 11.94m,0000001417Hz,0000000000c,0000000.000s, 019.6C,00002191
2016-10-10 07:32:07 r, 10.09m,0000007753Hz,0000000000c,0000000.000s, 019.6C,00002191
2016-10-10 07:42:07 r, 08.20m,0000044473Hz,0000000000c,0000000.000s, 019.6C,00002191
2016-10-10 07:52:07 r, 07.14m,0000118158Hz,0000000000c,0000000.000s, 019.3C,00002191
2016-10-10 08:02:07 r, 06.60m,0000194153Hz,0000000000c,0000000.000s, 019.3C,00002191
2016-10-10 08:12:07 r, 00.00m,0000449862Hz,0000000000c,0000000.000s, 019.6C,00002191
2016-10-10 08:22:07 r, 00.00m,0000596752Hz,0000000000c,0000000.000s, 019.6C,00002191
2016-10-10 08:32:07 r, 00.00m,0000596654Hz,0000000000c,0000000.000s, 019.6C,00002191
2016-10-10 08:42:06 r, 00.00m,0000596676Hz,0000000000c,0000000.000s, 019.6C,00002191
2016-10-10 08:52:06 r, 00.00m,0000596709Hz,0000000000c,0000000.000s, 019.9C,00002191
2016-10-10 09:02:07 r, 00.00m,0000596662Hz,0000000000c,0000000.000s, 020.3C,00002191
2016-10-10 09:12:06 r, 00.00m,0000596611Hz,0000000000c,0000000.000s, 020.3C,00002191
2016-10-10 09:22:07 r, 00.00m,0000596622Hz,0000000000c,0000000.000s, 020.9C,00002191
2016-10-10 09:32:06 r, 00.00m,0000596541Hz,0000000000c,0000000.000s, 021.2C,00002191
2016-10-10 09:42:07 r, 00.00m,0000596475Hz,0000000000c,0000000.000s, 021.5C,00002191
2016-10-10 09:52:06 r, 00.00m,0000596388Hz,0000000000c,0000000.000s, 021.9C,00002191
2016-10-10 10:02:08 r, 00.00m,0000596379Hz,0000000000c,0000000.000s, 022.2C,00002191
2016-10-10 10:12:07 r, 00.00m,0000596274Hz,0000000000c,0000000.000s, 022.8C,00002191
2016-10-10 10:22:07 r, 00.00m,0000596248Hz,0000000000c,0000000.000s, 023.5C,00002191
2016-10-10 10:32:07 r, 00.00m,0000596188Hz,0000000000c,0000000.000s, 024.1C,00002191
2016-10-10 10:42:06 r, 00.00m,0000596203Hz,0000000000c,0000000.000s, 023.8C,00002191
2016-10-10 10:52:07 r, 00.00m,0000596228Hz,0000000000c,0000000.000s, 023.5C,00002191
2016-10-10 11:02:07 r, 00.00m,0000596265Hz,0000000000c,0000000.000s, 023.5C,00002191
2016-10-10 11:12:06 r, 00.00m,0000596194Hz,0000000000c,0000000.000s, 023.8C,00002191
2016-10-10 11:22:07 r, 00.00m,0000595989Hz,0000000000c,0000000.000s, 025.4C,00002191
2016-10-10 11:32:06 r, 00.00m,0000595757Hz,0000000000c,0000000.000s, 026.7C,00002191
2016-10-10 11:42:07 r, 00.00m,0000595692Hz,0000000000c,0000000.000s, 028.3C,00002191
2016-10-10 11:52:07 r, 00.00m,0000595606Hz,0000000000c,0000000.000s, 028.3C,00002191
2016-10-10 12:02:07 r, 00.00m,0000595642Hz,0000000000c,0000000.000s, 028.0C,00002191
2016-10-10 12:12:07 r, 00.00m,0000595733Hz,0000000000c,0000000.000s, 027.7C,00002191
2016-10-10 12:22:07 r, 00.00m,0000595763Hz,0000000000c,0000000.000s, 027.3C,00002191
2016-10-10 12:32:07 r, 00.00m,0000595859Hz,0000000000c,0000000.000s, 026.4C,00002191
2016-10-10 12:42:07 r, 00.00m,0000595970Hz,0000000000c,0000000.000s, 025.4C,00002191
2016-10-10 12:52:07 r, 00.00m,0000596004Hz,0000000000c,0000000.000s, 025.1C,00002191
2016-10-10 13:02:07 r, 00.00m,0000596011Hz,0000000000c,0000000.000s, 025.1C,00002191
2016-10-10 13:12:07 r, 00.00m,0000595869Hz,0000000000c,0000000.000s, 025.7C,00002191
2016-10-10 13:22:07 r, 00.00m,0000595877Hz,0000000000c,0000000.000s, 026.1C,00002191
2016-10-10 13:32:07 r, 00.00m,0000595946Hz,0000000000c,0000000.000s, 026.1C,00002191
2016-10-10 13:42:06 r, 00.00m,0000595673Hz,0000000000c,0000000.000s, 027.0C,00002191
2016-10-10 13:52:07 r, 00.00m,0000595776Hz,0000000000c,0000000.000s, 027.0C,00002191
2016-10-10 14:02:07 r, 00.00m,0000595949Hz,0000000000c,0000000.000s, 026.1C,00002191
2016-10-10 14:12:07 r, 00.00m,0000596159Hz,0000000000c,0000000.000s, 024.8C,00002191
2016-10-10 14:22:07 r, 00.00m,0000596097Hz,0000000000c,0000000.000s, 024.4C,00002191
2016-10-10 14:32:07 r, 00.00m,0000596041Hz,0000000000c,0000000.000s, 024.1C,00002191
2016-10-10 14:42:07 r, 00.00m,0000596056Hz,0000000000c,0000000.000s, 024.1C,00002191
2016-10-10 14:52:07 r, 00.00m,0000596003Hz,0000000000c,0000000.000s, 024.8C,00002191
2016-10-10 15:02:07 r, 00.00m,0000595891Hz,0000000000c,0000000.000s, 025.1C,00002191
2016-10-10 15:12:07 r, 00.00m,0000595909Hz,0000000000c,0000000.000s, 025.7C,00002191
2016-10-10 15:22:07 r, 00.00m,0000595871Hz,0000000000c,0000000.000s, 025.4C,00002191
2016-10-10 15:32:07 r, 00.00m,0000596048Hz,0000000000c,0000000.000s, 024.4C,00002191
2016-10-10 15:42:07 r, 00.00m,0000596195Hz,0000000000c,0000000.000s, 024.4C,00002191
2016-10-10 15:52:07 r, 00.00m,0000596084Hz,0000000000c,0000000.000s, 024.1C,00002191
2016-10-10 16:02:07 r, 00.00m,0000596054Hz,0000000000c,0000000.000s, 024.1C,00002191
2016-10-10 16:12:07 r, 00.00m,0000596167Hz,0000000000c,0000000.000s, 023.8C,00002191
2016-10-10 16:22:07 r, 00.00m,0000596196Hz,0000000000c,0000000.000s, 023.5C,00002191
2016-10-10 16:32:07 r, 00.00m,0000596161Hz,0000000000c,0000000.000s, 023.2C,00002191
2016-10-10 16:42:07 r, 00.00m,0000596175Hz,0000000000c,0000000.000s, 022.8C,00002191
2016-10-10 16:52:07 r, 00.00m,0000596152Hz,0000000000c,0000000.000s, 023.2C,00002191
2016-10-10 17:02:07 r, 00.00m,0000596260Hz,0000000000c,0000000.000s, 022.8C,00002191
2016-10-10 17:12:07 r, 00.00m,0000596303Hz,0000000000c,0000000.000s, 023.2C,00002191
2016-10-10 17:22:07 r, 00.00m,0000596298Hz,0000000000c,0000000.000s, 022.5C,00002191
2016-10-10 17:32:07 r, 00.00m,0000596324Hz,0000000000c,0000000.000s, 021.9C,00002191
2016-10-10 17:42:07 r, 00.00m,0000596309Hz,0000000000c,0000000.000s, 021.9C,00002191
2016-10-10 17:52:07 r, 00.00m,0000596306Hz,0000000000c,0000000.000s, 021.2C,00002191
2016-10-10 18:02:07 r, 00.00m,0000596511Hz,0000000000c,0000000.000s, 020.6C,00002191
2016-10-10 18:12:07 r, 00.00m,0000596417Hz,0000000000c,0000000.000s, 020.3C,00002191
2016-10-10 18:22:07 r, 06.27m,0000263777Hz,0000000000c,0000000.000s, 019.9C,00002191
2016-10-10 18:32:07 r, 06.75m,0000169366Hz,0000000000c,0000000.000s, 019.3C,00002191
2016-10-10 18:42:08 r, 07.33m,0000098541Hz,0000000000c,0000000.000s, 019.0C,00002191
2016-10-10 18:52:07 r, 08.09m,0000049073Hz,0000000000c,0000000.000s, 018.6C,00002191
2016-10-10 19:02:07 r, 09.85m,0000009727Hz,0000000000c,0000000.000s, 018.3C,00002191
2016-10-10 19:12:07 r, 11.66m,0000001825Hz,0000000000c,0000000.000s, 018.3C,00002191
2016-10-10 19:22:07 r, 13.88m,0000000236Hz,0000000000c,0000000.000s, 018.3C,00002191
2016-10-10 19:32:07 r, 15.91m,0000000037Hz,0000012720c,0000000.028s, 018.3C,00002191
2016-10-10 19:42:07 r, 17.37m,0000000010Hz,0000048616c,0000000.106s, 018.3C,00002191
2016-10-10 19:52:07 r, 18.32m,0000000004Hz,0000117093c,0000000.254s, 018.3C,00002191
2016-10-10 20:02:07 r, 18.18m,0000000004Hz,0000102837c,0000000.223s, 018.3C,00002191
2016-10-10 20:12:07 r, 18.43m,0000000003Hz,0000129717c,0000000.282s, 018.3C,00002191
2016-10-10 20:22:07 r, 18.51m,0000000004Hz,0000139627c,0000000.303s, 018.3C,00002191
2016-10-10 20:32:07 r, 18.49m,0000000004Hz,0000136508c,0000000.296s, 018.6C,00002191
2016-10-10 20:42:07 r, 18.43m,0000000004Hz,0000129480c,0000000.281s, 018.6C,00002191
2016-10-10 20:52:07 r, 18.46m,0000000003Hz,0000133389c,0000000.289s, 018.6C,00002191
2016-10-10 21:02:07 r, 18.54m,0000000003Hz,0000143947c,0000000.312s, 018.6C,00002191
2016-10-10 21:12:07 r, 18.72m,0000000003Hz,0000169960c,0000000.369s, 018.6C,00002191
2016-10-10 21:22:07 r, 18.88m,0000000002Hz,0000195945c,0000000.425s, 018.6C,00002191
2016-10-10 21:32:07 r, 18.95m,0000000002Hz,0000208244c,0000000.452s, 018.6C,00002191
2016-10-10 21:42:07 r, 18.89m,0000000002Hz,0000197516c,0000000.429s, 018.6C,00002191
2016-10-10 21:52:07 r, 19.06m,0000000002Hz,0000231323c,0000000.502s, 018.3C,00002191
2016-10-10 22:02:07 r, 19.08m,0000000002Hz,0000236102c,0000000.512s, 018.3C,00002191
2016-10-10 22:12:07 r, 19.00m,0000000002Hz,0000217933c,0000000.473s, 018.3C,00002191
2016-10-10 22:22:07 r, 19.13m,0000000002Hz,0000247663c,0000000.537s, 018.3C,00002191
2016-10-10 22:32:07 r, 19.07m,0000000002Hz,0000233162c,0000000.506s, 018.0C,00002191
2016-10-10 22:42:07 r, 19.01m,0000000002Hz,0000220676c,0000000.479s, 018.0C,00002191
2016-10-10 22:52:07 r, 18.95m,0000000002Hz,0000208119c,0000000.452s, 018.0C,00002191
2016-10-10 23:02:07 r, 18.94m,0000000002Hz,0000207463c,0000000.450s, 018.0C,00002191
2016-10-10 23:12:07 r, 18.96m,0000000002Hz,0000210135c,0000000.456s, 018.0C,00002191
2016-10-10 23:22:07 r, 19.01m,0000000002Hz,0000220703c,0000000.479s, 018.0C,00002191
2016-10-10 23:32:07 r, 19.01m,0000000002Hz,0000219664c,0000000.477s, 018.0C,00002191
2016-10-10 23:42:07 r, 19.13m,0000000002Hz,0000244761c,0000000.531s, 018.0C,00002191
2016-10-10 23:52:07 r, 19.18m,0000000002Hz,0000258231c,0000000.560s, 018.0C,00002191
